Date,TemperatureHighF,TemperatureAvgF,TemperatureLowF,DewpointHighF,DewpointAvgF,DewpointLowF,HumidityHigh,HumidityAvg,HumidityLow,PressureMaxIn,PressureMinIn,WindSpeedMaxMPH,WindSpeedAvgMPH,GustSpeedMaxMPH,PrecipitationSumIn
2013-1-1,51.1,34.1,17.8,21.2,10.9,1.9,74,45,19,30.34,30.24,23,6,23,0.00
2013-1-2,58.3,37.0,18.5,10.4,4.0,0.4,49,30,14,30.32,30.19,18,6,18,0.00
2013-1-3,59.9,35.4,16.5,13.5,3.9,-3.2,61,34,13,30.34,30.22,17,6,17,0.00
2013-1-4,60.3,33.7,13.6,10.3,0.1,-8.8,55,31,10,30.40,30.27,10,4,10,34.77
2013-1-5,59.5,36.9,17.2,10.4,0.4,-7.2,53,28,10,30.41,30.21,9,4,10,0.00
2013-1-6,52.0,42.9,31.3,37.0,29.6,4.9,75,62,29,30.21,30.06,33,12,33,0.00
2013-1-7,64.8,43.4,27.1,32.1,24.1,8.7,77,52,18,30.22,30.11,15,6,15,24.19
2013-1-8,68.9,45.1,25.5,28.2,22.4,15.5,67,46,24,30.30,30.17,12,4,13,0.00
2013-1-9,66.2,49.3,28.8,33.5,27.0,20.9,73,48,25,30.29,30.00,24,8,24,0.00
2013-1-10,51.3,40.1,32.4,37.9,23.6,12.7,74,54,37,30.11,29.96,44,23,44,35.53
2013-1-11,43.7,35.9,29.5,22.6,19.6,15.6,68,53,41,30.20,30.08,34,13,34,0.00
2013-1-12,52.5,37.4,20.8,19.2,12.1,3.7,69,41,19,30.22,30.12,11,6,11,1.12
2013-1-13,49.8,30.3,12.9,18.5,6.2,-6.3,74,43,16,30.25,30.08,27,6,27,11.67
2013-1-14,41.4,27.1,10.0,2.9,-9.9,-16.7,45,24,11,30.43,30.25,16,4,16,24.19
2013-1-15,51.4,33.2,14.2,5.5,-2.2,-14.3,43,26,12,30.56,30.41,17,5,19,0.00
2013-1-16,60.6,38.8,19.6,17.0,9.3,-42.6,51,33,20,30.52,30.37,14,4,14,0.37
2013-1-17,65.1,40.5,17.8,15.7,4.1,-7.9,64,30,11,30.44,30.30,17,5,17,0.00
2013-1-18,65.7,40.4,19.8,10.0,0.6,-6.8,48,25,10,30.38,30.25,16,5,16,0.00
2013-1-19,66.6,40.2,19.8,7.0,-1.8,-13.3,43,23,10,30.41,30.27,13,5,13,0.00
2013-1-20,66.9,40.5,18.3,8.1,-1.8,-11.4,44,23,10,30.36,30.22,11,5,13,0.00
2013-1-21,71.2,42.1,19.4,9.7,-2.2,-14.5,44,22,10,30.33,30.21,14,5,14,0.00
2013-1-22,67.6,42.2,21.6,2.6,-2.3,-8.8,40,21,10,30.31,30.19,14,5,14,0.00
2013-1-23,68.2,50.1,34.3,33.3,4.5,-1.0,53,20,11,30.26,30.15,11,4,11,0.00
2013-1-24,59.4,51.5,47.3,48.3,28.1,-13.6,75,52,10,30.30,30.17,11,4,11,0.09
2013-1-25,57.0,51.5,45.9,47.8,19.9,-10.5,75,41,10,30.29,30.10,9,3,9,0.07
2013-1-26,74.3,54.1,46.6,52.1,24.6,-10.5,74,46,10,30.10,29.97,33,12,33,0.06
2013-1-27,52.0,44.8,41.2,40.6,28.9,15.8,75,56,33,30.08,30.00,37,18,37,0.00
2013-1-28,50.9,42.1,36.9,26.8,23.7,18.9,63,50,37,30.23,30.06,43,13,43,0.00
2013-1-29,62.1,45.9,36.3,30.2,28.1,25.7,72,53,30,30.31,30.14,34,12,35,0.00
2013-1-30,71.1,47.2,28.6,35.1,27.3,16.0,78,52,23,30.43,30.30,8,4,8,0.00
2013-1-31,73.2,48.0,28.9,37.5,28.4,18.7,75,53,23,30.38,30.25,11,5,11,0.00
2013-2-1,70.9,48.7,29.7,34.3,29.1,21.7,77,53,25,30.32,30.23,10,4,10,0.00
2013-2-2,67.5,53.8,40.8,44.7,33.0,26.8,73,50,27,30.37,30.26,17,4,17,0.00
2013-2-3,74.5,56.7,39.4,44.4,33.2,5.4,75,46,15,30.28,30.11,21,6,21,0.00
2013-2-4,78.6,52.4,33.6,33.7,26.5,19.8,73,44,16,30.22,30.09,11,5,11,5.86
2013-2-5,74.7,52.4,31.5,43.6,27.8,11.2,73,46,15,30.13,29.99,41,13,41,0.00
2013-2-6,69.8,51.6,38.3,39.0,26.2,5.8,75,44,15,30.16,30.04,33,13,36,0.00
2013-2-7,64.2,45.1,26.6,37.3,22.0,4.5,65,44,19,30.17,29.99,33,12,35,2.86
2013-2-8,48.4,39.3,35.2,32.4,26.1,-1.2,76,61,23,29.99,29.88,27,17,27,0.01
2013-2-9,52.7,41.2,32.4,29.0,23.8,12.7,73,53,25,30.12,29.94,37,17,37,0.00
2013-2-10,59.4,39.6,21.4,29.1,18.5,11.1,71,48,21,30.12,30.01,23,6,23,0.00
2013-2-11,60.1,38.3,22.5,29.0,9.8,-7.5,74,41,10,30.30,30.11,18,6,18,0.00
2013-2-12,63.9,40.9,19.0,17.3,6.0,-2.7,61,32,11,30.41,30.29,11,4,11,0.00
2013-2-13,69.8,45.6,23.7,26.0,13.1,5.5,63,35,12,30.38,30.22,11,4,11,33.26
2013-2-14,70.7,47.4,25.7,23.0,17.0,11.4,64,37,15,30.33,30.21,101,6,101,0.00
2013-2-15,71.1,50.4,29.3,22.3,14.5,4.8,63,30,13,30.39,30.31,30,7,30,0.00
2013-2-16,75.4,49.3,30.2,20.6,10.0,4.3,46,27,10,30.38,30.09,15,5,15,0.00
2013-2-17,69.6,52.4,30.2,35.3,21.5,8.9,64,36,14,30.09,29.97,33,13,33,0.00
2013-2-18,66.7,48.1,28.9,36.5,25.2,14.8,73,47,18,30.10,29.96,28,10,28,0.00
2013-2-19,52.0,43.0,34.9,36.4,32.6,18.0,74,67,49,29.98,29.72,41,20,41,0.02
2013-2-20,50.7,40.1,31.5,27.1,22.8,12.1,74,52,32,30.03,29.71,43,21,43,0.00
2013-2-21,58.5,44.8,35.6,28.9,22.7,9.4,72,46,20,30.17,30.01,31,11,31,0.00
2013-2-22,69.6,45.4,24.6,31.5,23.2,13.4,74,49,16,30.27,30.17,23,7,23,0.00
2013-2-23,59.4,50.1,38.8,31.4,27.0,11.9,63,43,27,30.20,29.93,58,21,58,0.06
2013-2-24,59.9,43.4,29.1,30.5,0.2,-12.3,66,22,10,30.29,30.16,30,9,30,0.00
2013-2-25,71.8,47.0,22.1,22.6,7.5,-5.5,41,25,10,30.31,30.09,36,10,40,0.00
2013-2-26,66.6,50.5,36.5,30.4,13.9,-3.5,58,30,11,30.27,30.11,25,8,26,5.95
2013-2-27,64.8,45.1,26.6,14.5,3.8,-4.1,49,24,10,30.41,30.27,18,6,18,12.00
2013-2-28,71.2,49.0,25.3,24.0,7.6,-3.7,55,26,10,30.48,30.38,14,5,14,0.00
2013-3-1,76.5,54.2,30.9,20.3,14.0,6.8,55,27,12,30.49,30.32,20,6,20,0.00
2013-3-2,80.4,57.1,34.3,24.0,17.6,12.2,50,27,13,30.38,30.17,21,6,21,0.00
2013-3-3,71.1,60.7,51.4,39.9,29.8,17.6,59,36,20,30.20,30.02,36,14,36,0.00
2013-3-4,78.6,58.4,45.5,41.4,35.9,23.9,74,49,19,30.15,30.05,27,9,27,0.00
2013-3-5,68.5,54.5,39.6,43.5,36.8,26.8,75,56,26,30.15,30.03,34,14,34,0.00
2013-3-6,58.3,48.6,41.5,41.0,37.6,31.5,74,67,52,30.14,30.03,37,19,37,0.00
2013-3-7,57.6,47.4,40.8,37.9,34.0,28.6,75,61,43,30.04,29.89,28,13,28,0.00
2013-3-8,51.4,42.7,28.8,37.5,24.9,-22.2,74,59,10,30.04,29.81,40,16,40,0.37
2013-3-9,61.7,47.4,37.6,36.4,32.0,26.3,74,58,31,30.30,30.03,30,14,30,0.00
2013-3-10,72.7,50.5,29.7,39.0,22.9,-39.9,75,45,11,30.41,30.26,16,6,16,0.07
2013-3-11,82.4,55.3,30.4,34.4,21.1,5.2,73,37,10,30.32,30.14,14,5,14,0.00
2013-3-12,85.8,58.6,34.5,32.0,21.6,13.2,61,32,11,30.26,30.14,20,5,20,48.57
2013-3-13,88.0,62.5,38.7,30.4,24.8,18.7,64,32,12,30.32,30.18,13,5,13,36.28
2013-3-14,95.4,66.4,41.9,38.7,30.2,23.9,57,32,14,30.28,30.13,20,6,20,0.00
2013-3-15,88.7,70.2,57.2,49.2,40.2,23.1,70,41,14,30.16,30.02,34,15,34,0.00
2013-3-16,80.8,66.7,55.6,48.3,35.8,21.6,67,38,16,30.06,29.97,61,20,61,0.05
2013-3-17,77.5,63.6,54.0,41.7,29.8,14.6,50,33,14,30.12,30.00,43,21,43,0.00
2013-3-18,79.9,64.1,47.8,36.6,23.6,2.9,53,28,10,30.14,30.03,41,15,41,0.34
2013-3-19,79.5,64.9,52.5,34.3,28.9,19.8,44,30,19,30.19,30.08,33,16,33,0.00
2013-3-20,75.6,62.9,54.3,41.1,36.4,21.5,60,42,18,30.16,30.04,36,22,42,0.00
2013-3-21,71.8,59.6,52.7,44.9,38.8,32.0,70,49,29,30.06,29.90,49,24,49,0.01
2013-3-22,72.9,57.2,46.4,37.6,29.7,-2.9,58,39,20,30.04,29.90,54,23,54,0.50
2013-3-23,79.9,58.4,41.9,31.4,10.8,-2.8,47,22,10,30.15,30.02,46,12,46,0.00
2013-3-24,81.9,61.2,41.2,25.7,12.5,0.9,34,20,10,30.16,30.00,28,8,28,0.00
2013-3-25,81.5,61.9,41.7,38.6,23.8,6.3,42,28,10,30.08,29.96,24,9,24,0.00
2013-3-26,78.1,62.9,46.0,34.6,25.7,-6.7,55,31,10,30.03,29.96,27,13,27,0.47
2013-3-27,74.1,61.8,52.9,45.0,39.3,33.1,71,48,27,30.10,29.97,37,18,37,0.00
2013-3-28,77.9,62.0,49.8,45.5,37.6,27.5,74,48,21,30.16,30.07,26,11,27,0.00
2013-3-29,81.0,64.1,43.5,42.3,35.2,28.0,69,40,19,30.20,30.11,24,8,24,0.00
2013-3-30,78.1,64.6,47.3,41.8,32.3,22.8,57,35,18,30.18,30.08,29,14,29,0.00
2013-3-31,67.3,57.9,50.0,49.4,42.4,26.1,74,59,33,30.16,30.09,31,17,31,0.00
2013-4-1,68.9,56.6,46.4,41.8,37.0,20.1,74,51,31,30.19,30.09,37,19,37,0.00
2013-4-2,79.3,62.1,49.8,44.8,39.2,30.8,73,49,22,30.17,30.07,33,13,33,0.00
2013-4-3,89.8,64.7,41.7,41.5,33.8,25.0,71,40,15,30.19,30.08,25,7,25,0.00
2013-4-4,77.4,65.6,54.3,48.2,41.4,33.5,70,45,29,30.15,30.06,36,14,36,0.00
2013-4-5,70.2,60.2,53.2,54.9,43.6,31.9,74,57,35,30.14,30.04,46,23,46,0.00
2013-4-6,70.7,61.5,51.6,43.6,38.4,31.5,60,45,32,30.16,30.03,47,24,47,0.00
2013-4-7,74.3,62.7,50.9,42.4,37.0,29.0,60,42,25,30.07,29.88,48,21,49,0.00
2013-4-8,60.8,52.1,46.4,43.2,32.7,-12.3,68,49,35,29.92,29.70,59,31,59,0.30
2013-4-9,72.3,57.0,44.4,32.8,20.4,7.6,54,29,13,30.15,29.91,35,11,35,0.00
2013-4-10,83.7,61.9,36.3,29.7,16.5,3.8,47,23,10,30.25,30.08,32,10,32,0.00
2013-4-11,83.7,68.5,60.4,44.7,37.5,25.5,55,36,22,30.09,29.85,39,18,40,0.00
2013-4-12,91.0,69.4,48.2,46.3,39.5,26.2,70,42,15,29.98,29.85,25,10,25,0.00
2013-4-13,82.0,69.6,58.8,49.9,37.2,17.9,68,37,13,29.96,29.81,44,20,45,0.00
2013-4-14,74.7,64.6,55.4,44.9,37.9,-0.2,66,41,23,29.88,29.80,49,29,49,0.00
2013-4-15,68.2,55.1,46.6,45.5,39.0,16.8,75,57,22,29.90,29.83,46,31,47,0.00
2013-4-16,57.2,48.7,38.5,27.7,23.0,15.4,54,39,24,30.08,29.88,43,18,43,0.00
2013-4-17,69.3,53.8,37.2,22.3,15.5,5.4,47,27,14,30.26,30.07,23,9,23,0.00
2013-4-18,71.6,54.7,34.0,16.6,5.9,-5.3,46,20,10,30.37,30.26,23,6,23,0.00
2013-4-19,83.1,61.4,36.1,25.4,12.9,3.3,35,20,10,30.33,30.09,47,10,47,0.00
2013-4-20,90.7,72.6,57.2,38.9,26.2,7.9,37,23,10,30.14,30.03,34,13,37,0.00
2013-4-21,92.1,71.8,48.2,37.1,28.7,7.8,48,26,10,30.13,30.02,35,11,35,0.00
2013-4-22,88.7,75.1,57.2,34.5,27.2,19.3,31,21,12,30.08,29.91,36,16,36,0.00
2013-4-23,83.8,70.8,54.5,38.8,21.5,8.5,44,21,10,30.11,29.93,31,10,31,0.76
2013-4-24,84.4,64.0,47.5,48.1,30.1,8.8,73,35,11,30.02,29.89,37,13,37,12.85
2013-4-25,79.5,63.8,47.8,46.2,42.3,35.8,74,51,28,30.14,29.96,36,21,37,0.00
2013-4-26,92.7,71.5,49.3,47.3,37.1,14.5,66,37,10,30.24,30.13,52,10,52,0.00
2013-4-27,96.1,75.8,51.8,40.7,34.6,16.9,57,29,10,30.27,30.11,27,10,27,0.00
2013-4-28,98.1,79.8,66.7,44.7,35.9,24.1,42,26,11,30.13,29.96,33,14,35,0.00
2013-4-29,94.5,78.8,59.9,42.9,31.8,21.0,36,23,12,30.01,29.85,34,15,34,0.04
2013-4-30,89.8,76.5,65.3,48.5,39.1,21.3,54,30,13,29.89,29.81,39,23,39,0.00
2013-5-1,85.3,70.8,55.2,42.1,16.5,4.3,56,20,10,30.25,29.89,36,11,39,0.00
2013-5-2,82.4,65.2,45.0,13.7,-8.5,-11.5,23,11,10,30.40,30.23,30,10,30,0.00
2013-5-3,96.4,68.6,39.0,27.9,1.9,-12.5,27,13,10,30.25,29.94,25,7,25,0.00
2013-5-4,83.1,71.3,57.4,38.0,28.2,13.4,48,25,11,29.95,29.77,42,22,43,0.00
2013-5-5,68.5,56.1,51.1,47.7,43.1,34.4,74,63,47,30.01,29.86,37,22,37,0.00
2013-5-6,66.6,55.4,50.5,48.7,40.1,-10.4,75,61,10,30.07,29.96,32,16,32,0.06
2013-5-7,68.4,56.7,47.7,45.0,41.0,36.0,74,59,36,30.10,30.04,36,16,36,0.00
2013-5-8,74.7,61.5,50.2,48.3,43.9,37.6,74,56,33,30.15,30.08,34,15,34,0.85
2013-5-9,81.1,65.0,47.5,47.9,44.4,37.9,74,52,29,30.18,30.08,28,7,28,0.00
2013-5-10,93.9,74.1,53.2,50.8,44.1,33.6,70,41,19,30.22,30.11,28,9,28,0.00
2013-5-11,98.1,80.5,59.0,51.8,42.6,29.9,57,33,15,30.24,30.13,21,7,21,0.02
2013-5-12,101.0,84.7,66.9,54.9,45.0,-41.2,57,31,13,30.24,30.08,31,10,31,18.07
2013-5-13,95.9,79.4,-28.7,47.5,38.1,-32.2,81,27,15,30.16,29.91,70,9,70,60.61
2013-5-14,88.2,76.2,-19.3,43.9,27.5,-58.6,38,23,10,29.95,29.86,40,16,40,0.17
2013-5-15,89.4,77.7,67.1,45.0,36.4,18.0,44,28,11,29.95,29.85,47,23,47,0.00
2013-5-16,79.5,67.9,59.4,46.4,38.0,-37.2,56,37,21,29.90,29.82,80,28,80,0.00
2013-5-17,77.5,65.9,55.9,45.9,39.1,-24.1,69,42,23,29.91,29.85,45,26,45,0.00
2013-5-18,123.0,68.6,-15.7,35.5,25.3,-52.6,46,25,13,29.99,29.88,78,22,78,0.04
2013-5-19,89.4,72.4,-22.7,40.5,26.7,-61.1,42,23,10,29.99,29.88,46,20,46,24.38
2013-5-20,95.2,74.7,55.9,38.2,26.0,-64.7,43,23,10,30.05,29.90,23,8,23,0.19
2013-5-21,90.7,75.0,-8.9,46.7,30.7,-58.2,45,25,13,29.95,29.80,52,14,52,24.28
2013-5-22,77.4,62.1,-11.6,54.5,25.0,-48.6,93,29,11,29.82,29.73,45,29,131,0.00
2013-5-23,75.6,59.2,-5.4,25.6,13.7,-47.3,29,21,11,29.90,29.77,81,26,81,0.00
2013-5-24,80.4,64.1,-11.9,44.2,27.5,-51.1,54,30,10,29.92,29.86,34,14,34,24.38
2013-5-25,113.0,66.1,-5.4,47.0,35.4,-49.7,64,38,11,29.93,29.88,36,21,36,0.00
2013-5-26,77.7,66.4,-4.5,38.1,33.9,-27.6,52,34,21,29.98,29.90,78,26,78,0.00
2013-5-27,82.6,68.9,57.0,53.3,35.7,-7.0,59,34,15,29.95,29.83,51,24,72,0.07
2013-5-28,73.6,65.5,57.2,50.4,45.5,-20.9,69,51,36,29.86,29.74,51,27,51,0.01
2013-5-29,81.1,71.1,61.7,46.6,42.4,-24.7,57,39,21,29.88,29.71,55,27,55,0.02
2013-5-30,92.5,74.9,59.9,43.5,33.8,11.3,51,29,10,29.88,29.78,48,23,48,0.00
2013-5-31,100.0,79.4,-33.3,70.1,30.9,-61.9,76,22,11,29.98,29.83,109,15,109,0.27
2013-6-1,103.0,82.9,64.2,44.3,33.4,18.0,40,23,10,29.99,29.85,34,9,34,0.00
2013-6-2,96.6,80.6,65.5,50.0,39.6,24.1,40,27,17,29.87,29.75,34,16,34,0.00
2013-6-3,89.2,76.5,61.3,43.9,34.8,14.8,45,27,15,29.90,29.79,32,18,33,0.00
2013-6-4,92.7,76.6,59.7,50.7,40.4,-51.5,53,33,13,29.96,29.88,33,15,33,0.00
2013-6-5,99.5,81.0,60.8,53.0,44.1,30.0,57,33,14,29.99,29.89,32,12,32,0.07
2013-6-6,103.0,82.0,-15.5,53.8,45.7,-41.6,57,34,16,29.96,29.86,28,11,29,0.39
2013-6-7,111.0,87.3,66.2,55.9,46.6,29.9,52,31,11,29.92,29.79,30,10,30,0.00
2013-6-8,108.0,88.9,-18.0,52.0,42.8,-36.9,43,26,10,29.91,29.81,40,13,40,0.66
2013-6-9,93.6,81.0,68.0,45.6,29.8,12.4,39,21,10,29.94,29.87,33,15,33,0.00
2013-6-10,85.1,72.8,60.8,46.1,35.0,9.2,58,30,13,29.97,29.89,37,21,37,0.00
2013-6-11,98.6,81.9,61.0,42.9,36.3,20.0,43,25,13,30.00,29.92,32,14,32,0.00
2013-6-12,91.0,79.8,66.6,49.3,38.8,-59.1,48,28,13,30.01,29.94,36,17,36,0.38
2013-6-13,90.7,77.5,65.3,41.1,24.3,12.8,35,19,10,30.05,29.96,36,21,36,0.00
2013-6-14,95.4,77.1,54.9,43.8,25.9,-67.5,36,22,10,29.99,29.86,34,13,34,0.00
2013-6-15,88.3,74.4,55.4,48.8,34.5,16.6,47,29,11,29.99,29.90,34,16,34,0.38
2013-6-16,92.5,79.1,65.7,37.9,26.6,15.9,37,20,10,30.05,29.97,34,18,34,0.00
2013-6-17,93.2,79.6,65.5,37.8,31.4,19.4,33,22,11,30.04,29.95,38,19,38,0.00
2013-6-18,91.2,76.3,64.2,43.6,35.7,21.4,45,28,12,29.99,29.88,39,24,42,0.00
2013-6-19,84.9,69.2,54.1,42.9,29.8,12.6,56,30,10,29.98,29.87,47,28,50,0.00
2013-6-20,89.6,73.7,58.5,36.0,25.1,13.0,42,22,10,29.95,29.88,43,22,43,0.00
2013-6-21,89.6,75.4,-24.3,37.0,26.5,-60.7,40,22,10,29.96,29.88,42,20,42,0.00
2013-6-22,97.2,79.6,62.1,36.5,29.0,-4.6,36,21,12,29.96,29.86,34,15,34,0.57
2013-6-23,87.6,77.2,67.6,45.8,35.8,23.5,44,27,16,29.89,29.80,44,24,44,0.01
2013-6-24,86.2,70.3,62.1,55.6,50.8,42.1,68,52,40,29.96,29.81,35,22,38,0.00
2013-6-25,91.8,77.9,-26.9,56.2,51.5,-46.6,65,44,28,30.01,29.94,38,21,38,0.00
2013-6-26,98.4,83.9,69.6,58.9,55.6,-18.7,65,43,24,30.07,29.97,32,18,32,0.00
2013-6-27,102.0,87.5,73.4,60.8,56.2,28.0,64,40,14,30.11,30.04,29,14,29,0.00
2013-6-28,110.0,90.1,-17.1,60.1,54.9,-61.1,59,36,17,30.09,29.96,28,10,28,0.66
2013-6-29,110.0,90.8,-31.4,56.3,50.2,-67.2,49,30,11,30.00,29.88,24,11,24,0.00
2013-6-30,114.0,95.2,75.0,55.2,48.8,23.0,39,26,11,29.94,29.82,33,12,33,0.66
2013-7-1,104.0,90.2,78.8,54.1,49.9,-40.2,40,29,20,29.98,29.88,54,16,54,0.00
2013-7-2,105.0,90.4,72.5,53.8,48.3,-52.1,47,28,18,30.03,29.94,37,16,37,0.38
2013-7-3,111.0,92.5,-38.9,62.8,48.7,-61.3,35,26,19,29.98,29.83,53,13,53,0.30
2013-7-4,105.0,82.0,-33.7,54.8,43.5,-55.8,43,29,19,29.89,29.78,92,24,92,0.38
2013-7-5,98.8,87.3,77.7,55.8,52.9,-52.9,46,35,24,29.87,29.78,36,20,37,0.00
2013-7-6,98.6,84.7,71.1,53.1,49.3,-60.2,53,34,19,29.87,29.80,34,16,34,0.00
2013-7-7,104.0,87.3,65.1,48.7,41.9,31.3,48,26,13,29.95,29.83,33,11,33,0.00
2013-7-8,103.0,87.3,66.2,41.6,35.5,23.9,36,21,10,30.06,29.94,34,9,34,0.38
2013-7-9,106.0,89.9,72.7,41.8,33.6,24.1,27,18,12,30.11,30.01,27,11,27,0.00
2013-7-10,102.0,87.7,76.3,51.5,40.5,34.5,37,23,14,30.06,29.94,27,11,27,0.00
2013-7-11,88.9,80.2,73.4,55.0,48.6,35.6,53,37,21,30.03,29.93,28,16,28,0.00
2013-7-12,95.9,81.9,67.6,54.6,45.8,36.1,56,33,18,30.00,29.90,35,14,35,0.00
2013-7-13,101.0,86.5,68.0,44.5,40.7,-61.5,40,25,16,30.03,29.93,26,10,26,0.00
2013-7-14,122.0,88.5,75.6,38.4,34.1,24.0,26,19,14,30.03,29.92,27,12,27,0.01
2013-7-15,97.9,85.4,73.0,40.2,32.8,21.7,28,19,15,29.95,29.86,37,17,39,4.54
2013-7-16,93.9,78.7,59.9,84.0,20.6,9.8,75,17,10,30.04,29.93,33,15,33,0.00
2013-7-17,100.0,82.5,63.3,46.0,34.7,22.8,48,25,11,30.10,30.02,27,11,27,0.00
2013-7-18,108.0,84.1,60.3,45.1,36.3,24.6,41,24,10,30.09,29.93,27,9,27,0.00
2013-7-19,107.0,87.1,65.5,45.5,37.9,29.0,37,23,11,29.99,29.86,30,10,30,0.57
2013-7-20,101.0,85.6,70.7,59.3,44.7,35.5,47,29,15,29.94,29.85,37,13,37,0.00
2013-7-21,94.3,82.8,73.4,61.2,54.6,31.9,60,42,21,30.02,29.86,27,12,27,0.00
2013-7-22,95.4,80.9,-25.6,65.3,60.5,-40.3,75,53,37,30.05,29.95,32,10,32,0.00
2013-7-23,95.7,80.7,70.9,65.0,55.8,49.6,73,47,32,30.07,29.95,34,12,34,0.00
2013-7-24,101.0,87.5,69.1,57.5,52.7,47.3,56,35,21,30.02,29.92,32,14,32,0.00
2013-7-25,103.0,90.4,74.5,54.3,49.9,45.1,43,29,21,30.06,29.96,27,13,27,0.00
2013-7-26,92.8,86.7,79.2,59.5,54.7,48.8,47,37,31,30.14,30.04,23,9,23,0.00
2013-7-27,103.0,86.3,73.6,60.7,54.8,50.5,50,37,28,30.08,29.91,32,11,32,0.00
2013-7-28,96.3,83.1,73.4,54.1,47.9,35.3,47,34,19,29.95,29.87,36,18,36,0.00
2013-7-29,93.7,81.3,66.9,37.4,27.0,16.5,36,18,10,30.06,29.93,30,16,30,0.00
2013-7-30,96.3,82.5,69.1,48.9,40.0,23.7,44,27,15,30.13,30.04,28,12,30,0.00
2013-7-31,98.2,80.5,-9.8,46.6,36.2,-57.4,51,27,10,30.12,30.00,30,12,30,0.63
2013-8-1,94.1,80.5,68.0,46.2,35.8,-33.6,45,25,13,30.04,29.94,31,18,36,0.00
2013-8-2,95.7,79.4,66.2,47.0,35.4,17.5,45,26,10,30.00,29.94,32,15,32,0.00
2013-8-3,96.8,79.0,59.7,48.2,34.7,24.5,48,26,12,30.02,29.95,30,12,30,0.00
2013-8-4,96.3,78.4,55.4,38.8,28.2,3.9,44,22,10,30.04,29.96,32,12,32,0.00
2013-8-5,97.0,81.2,64.6,36.5,26.2,5.0,35,19,10,30.05,29.96,32,15,32,0.00
2013-8-6,94.3,79.7,65.1,46.0,26.6,2.5,45,19,10,30.06,29.99,37,17,37,0.00
2013-8-7,91.8,78.1,63.9,45.8,37.0,27.4,42,27,16,30.08,30.01,27,15,30,0.00
2013-8-8,88.7,75.5,63.9,50.4,41.0,17.8,60,36,11,30.04,29.95,31,18,31,0.00
2013-8-9,90.9,75.3,57.6,45.9,35.2,15.7,58,30,10,30.01,29.93,30,12,31,0.00
2013-8-10,91.8,77.9,63.0,47.1,41.0,33.9,50,32,17,30.05,29.99,27,12,27,0.00
2013-8-11,96.3,79.3,61.5,51.7,43.4,34.6,59,34,16,30.04,29.94,25,11,27,0.00
2013-8-12,99.3,81.0,59.4,47.1,40.2,33.3,49,29,15,30.03,29.94,27,10,27,0.00
2013-8-13,104.0,83.7,61.0,46.7,37.9,26.1,47,25,11,30.05,29.95,28,10,30,0.00
2013-8-14,104.0,85.9,64.6,43.2,35.0,21.3,39,22,10,30.03,29.93,23,9,23,1.28
2013-8-15,102.0,84.9,67.3,48.1,36.8,23.8,38,23,11,30.04,29.97,29,10,30,0.00
2013-8-16,99.9,86.5,72.3,52.7,43.3,30.5,38,26,19,30.05,29.97,28,13,28,1.28
2013-8-17,102.0,87.0,73.0,51.4,41.7,24.4,43,26,11,30.04,29.90,29,12,29,0.05
2013-8-18,103.0,85.1,65.5,59.7,47.9,38.5,45,32,18,30.04,29.88,24,8,24,0.00
2013-8-19,102.0,84.9,72.9,70.4,56.6,41.5,65,42,26,30.07,29.91,34,9,34,0.01
2013-8-20,98.6,84.1,68.0,53.7,43.6,31.8,53,30,14,30.00,29.92,30,10,30,0.00
2013-8-21,98.6,86.2,72.1,44.3,34.1,20.1,31,20,14,30.03,29.93,30,11,30,0.00
2013-8-22,98.8,86.4,67.6,43.6,31.2,13.1,30,18,11,30.04,29.92,28,11,28,0.04
2013-8-23,97.2,81.2,60.3,46.5,36.1,19.9,50,27,11,29.98,29.85,28,12,29,0.00
2013-8-24,96.3,79.1,59.5,44.7,33.6,18.4,50,27,10,29.98,29.85,25,10,25,0.04
2013-8-25,95.7,78.2,56.8,45.3,36.5,-55.0,54,28,11,30.04,29.93,27,10,29,0.31
2013-8-26,93.2,77.4,59.4,66.3,51.4,25.6,70,44,26,30.09,29.94,23,6,23,0.08
2013-8-27,95.9,80.5,65.8,64.7,60.4,54.5,75,54,36,30.01,29.88,21,6,21,0.09
2013-8-28,98.2,83.2,67.8,61.6,54.4,-50.5,63,41,30,30.03,29.92,31,10,31,0.00
2013-8-29,104.0,85.7,68.4,55.4,49.4,44.9,50,33,22,30.08,29.97,24,9,24,0.00
2013-8-30,102.0,84.8,72.0,66.3,59.3,52.4,61,46,28,30.12,29.99,32,12,32,1.55
2013-8-31,93.6,83.9,74.1,66.9,64.4,-44.2,71,55,40,30.07,29.95,35,17,35,0.00
2013-9-1,98.2,82.3,74.5,66.8,63.4,58.7,73,56,38,30.03,29.93,29,16,29,0.00
2013-9-2,96.8,84.8,73.4,65.5,56.6,-49.2,66,43,27,30.02,29.91,30,11,30,1.51
2013-9-3,97.2,84.4,70.2,61.3,56.5,-43.6,70,44,27,30.03,29.93,27,12,27,0.00
2013-9-4,101.0,85.1,68.9,57.3,52.6,-58.1,64,38,22,30.06,29.94,62,9,62,0.02
2013-9-5,100.0,84.9,-35.1,55.4,49.5,-57.0,57,34,20,30.04,29.94,40,10,40,0.38
2013-9-6,100.0,85.2,67.8,53.6,47.6,39.0,59,33,20,30.04,29.90,27,11,28,0.00
2013-9-7,104.0,83.7,62.8,46.5,39.5,-62.9,44,26,16,30.02,29.88,29,8,29,0.00
2013-9-8,103.0,83.6,61.5,52.2,39.1,-64.4,43,25,15,29.98,29.84,24,7,25,0.00
2013-9-9,100.0,83.7,71.4,57.2,46.8,32.1,50,32,21,29.96,29.79,29,8,35,0.04
2013-9-10,91.4,79.8,69.1,48.4,37.6,26.9,41,26,17,29.97,29.83,33,15,33,0.00
2013-9-11,93.6,78.6,66.2,50.0,41.4,24.8,41,30,20,30.02,29.94,33,16,34,0.00
2013-9-12,95.9,79.7,62.1,46.5,41.5,31.0,55,31,16,30.02,29.91,27,11,27,0.00
2013-9-13,102.0,80.9,61.3,49.4,43.5,35.5,44,31,19,29.95,29.78,23,8,23,0.00
2013-9-14,103.0,82.5,61.0,87.8,46.7,33.7,81,35,15,29.88,29.75,24,8,24,0.00
2013-9-15,99.5,83.0,64.2,53.3,45.1,14.0,60,33,17,29.91,29.83,23,8,26,0.18
2013-9-16,97.2,80.5,61.3,48.0,40.1,26.6,54,30,16,29.97,29.86,28,10,28,0.00
2013-9-17,90.0,75.6,59.9,48.8,35.0,11.6,53,30,10,29.91,29.79,34,16,36,0.00
2013-9-18,94.8,73.3,59.9,45.1,40.2,30.7,56,36,15,29.91,29.82,29,14,29,0.00
2013-9-19,97.7,74.6,51.4,43.3,32.4,22.3,54,29,12,29.97,29.84,17,6,19,1.61
2013-9-20,94.8,72.8,54.3,54.3,38.6,24.6,61,34,16,29.92,29.86,30,12,30,0.00
2013-9-21,79.2,67.7,57.2,56.6,47.2,35.8,73,51,34,29.92,29.82,36,19,36,0.04
2013-9-22,74.3,62.7,53.8,47.5,38.8,26.9,68,45,22,29.99,29.86,40,16,40,1.70
2013-9-23,92.1,68.2,45.7,44.9,36.3,27.3,68,39,15,30.07,29.96,15,5,16,0.00
2013-9-24,90.9,73.0,51.6,43.2,33.9,16.1,51,30,10,30.04,29.91,33,12,33,0.00
2013-9-25,73.8,63.2,55.4,46.4,39.8,21.0,64,46,29,29.91,29.77,40,23,40,1.72
2013-9-26,70.2,58.9,49.6,40.2,31.1,7.1,64,40,13,29.99,29.79,33,18,33,0.00
2013-9-27,78.1,60.9,41.0,33.5,22.7,10.7,57,29,13,30.14,29.98,17,6,17,0.00
2013-9-28,90.9,62.8,39.0,27.7,17.4,6.7,47,24,10,30.19,30.08,15,5,15,0.00
2013-9-29,92.5,70.2,47.5,27.9,21.6,10.9,45,22,10,30.15,30.04,34,12,34,0.00
2013-9-30,90.5,72.9,60.4,46.0,36.3,23.8,58,32,16,30.09,29.94,40,19,40,0.00
2013-10-1,90.1,72.5,56.8,51.6,44.9,33.7,62,42,22,30.00,29.92,29,18,29,0.00
2013-10-2,85.3,69.4,58.6,52.2,44.7,-34.5,74,47,14,29.99,29.90,40,19,41,0.00
2013-10-3,74.1,64.3,56.1,41.6,31.6,18.9,46,33,16,30.02,29.88,43,23,45,0.00
2013-10-4,74.7,60.5,44.8,28.3,10.8,3.4,49,20,10,30.26,30.02,32,10,32,0.00
2013-10-5,80.1,62.7,48.6,16.3,8.7,-1.2,25,16,10,30.36,30.23,33,10,33,0.00
2013-10-6,87.8,61.9,37.8,14.4,7.7,-2.5,34,16,10,30.28,30.12,17,6,17,0.00
2013-10-7,87.6,63.7,43.9,19.5,10.5,2.8,28,17,10,30.12,29.96,117,9,117,0.00
2013-10-8,77.4,63.1,-13.4,49.5,29.5,-44.2,74,36,17,29.99,29.81,34,18,35,0.00
2013-10-9,60.3,51.9,42.4,47.6,41.1,-3.7,76,67,48,29.84,29.70,40,20,40,0.00
2013-10-10,70.5,54.1,36.7,40.2,35.0,-22.4,77,53,29,30.05,29.83,30,12,30,0.00
2013-10-11,80.4,57.9,37.0,39.6,33.4,27.0,69,45,21,30.12,29.99,21,6,21,0.00
2013-10-12,80.2,60.4,41.0,43.0,32.3,25.0,61,40,20,30.06,29.91,29,9,29,0.00
2013-10-13,71.2,59.3,47.8,40.1,30.4,-37.0,64,39,14,30.10,29.95,34,14,58,0.00
2013-10-14,76.3,56.4,-9.6,37.0,25.1,-40.3,92,37,17,30.20,30.06,17,5,17,0.57
2013-10-15,77.4,57.5,9.1,25.7,19.9,-22.5,53,29,15,30.14,30.04,17,6,17,0.00
2013-10-16,77.9,56.4,37.9,27.1,13.9,-52.8,45,24,11,30.26,30.12,17,6,17,0.00
2013-10-17,87.3,58.6,-0.2,28.7,19.5,-54.9,38,27,13,30.16,30.00,23,6,23,1.72
2013-10-18,84.0,60.1,21.0,28.6,17.0,-0.1,47,25,11,30.18,30.06,16,5,17,1.72
2013-10-19,88.9,61.8,36.7,21.1,12.0,-48.2,33,19,10,30.20,30.06,12,5,12,24.19
2013-10-20,92.7,63.2,39.2,28.1,14.8,-57.2,31,20,10,30.10,29.96,18,5,18,0.00
2013-10-21,86.4,61.0,37.8,21.5,11.1,3.6,30,19,10,30.12,30.01,17,5,17,0.00
2013-10-22,86.0,62.3,41.2,19.7,12.1,2.6,32,18,10,30.16,30.00,16,5,16,0.00
2013-10-23,85.8,64.2,-15.9,21.1,15.8,-53.1,33,20,11,30.05,29.95,15,6,15,0.00
2013-10-24,92.3,66.4,43.3,31.3,20.3,-16.0,33,22,10,30.10,29.99,22,6,22,0.00
2013-10-25,90.3,66.0,43.7,29.8,23.2,13.7,42,25,11,30.20,30.09,13,4,13,0.76
2013-10-26,87.6,64.0,42.3,24.3,17.1,11.2,35,21,10,30.24,30.09,13,5,13,0.00
2013-10-27,82.9,62.7,44.1,45.6,25.7,-19.8,74,31,12,30.10,29.78,34,13,34,0.00
2013-10-28,58.5,51.4,-6.7,45.2,40.5,26.2,75,66,45,29.95,29.75,72,23,72,0.19
2013-10-29,49.1,49.1,49.1,41.1,41.1,41.1,74,74,74,30.00,29.94,17,17,17,0.19
2013-10-30,49.1,49.1,49.1,41.1,41.1,41.1,74,74,74,29.96,29.96,17,17,17,0.19
2013-11-5,64.9,47.8,37.0,12.4,3.1,-99.9,22,16,11,30.13,30.04,11,0,11,0.00
2013-11-6,71.4,49.7,28.0,14.0,7.1,0.7,34,19,10,30.17,29.75,17,5,17,0.00
2013-11-7,78.1,53.6,34.7,23.5,13.1,3.2,32,21,12,30.13,29.70,11,4,17,0.00
2013-11-8,82.2,55.3,33.3,24.6,16.2,6.6,41,23,11,29.96,29.81,14,4,15,0.00
2013-11-9,78.8,56.0,35.2,78.8,20.1,5.2,44,21,10,29.98,29.88,10,4,10,0.00
2013-11-10,76.8,50.3,32.4,21.4,5.3,-99.9,33,19,12,30.06,29.96,11,-61,11,0.00
2013-11-11,78.8,47.8,35.2,28.6,-5.3,-99.9,32,16,12,30.09,29.97,14,-177,14,0.00
2013-11-12,76.8,55.6,42.4,23.7,15.5,9.3,31,21,12,30.15,30.06,11,4,11,0.00
2013-11-13,82.4,57.5,36.3,33.3,19.8,8.2,38,25,10,30.08,29.93,16,4,16,0.00
2013-11-14,82.6,60.8,38.5,33.3,25.9,15.4,44,28,14,29.98,29.67,25,7,25,0.00
2013-11-15,65.7,57.5,46.0,42.1,37.4,31.1,62,48,32,29.68,29.55,36,20,36,0.00
2013-11-16,64.4,53.3,41.9,46.4,38.7,31.5,74,59,34,29.78,29.61,41,22,41,0.01
2013-11-17,70.7,52.2,39.7,39.0,32.7,23.7,78,50,28,29.98,29.78,22,6,22,0.00
2013-11-18,71.8,52.3,34.7,46.9,36.5,25.9,72,57,32,29.98,29.90,18,6,19,0.00
2013-11-19,66.6,55.7,47.1,43.9,39.7,35.8,73,56,33,29.92,29.77,38,17,38,0.00
2013-11-20,77.0,56.2,48.2,54.0,41.5,29.7,72,58,41,29.81,29.70,35,19,35,0.00
2013-11-21,64.2,51.7,37.0,57.6,37.3,-8.9,74,42,10,29.84,29.69,30,9,30,1.06
2013-11-22,48.7,44.0,38.8,40.1,33.2,11.1,72,66,28,29.92,29.82,37,13,37,0.04
2013-11-23,50.9,44.1,41.2,44.1,25.8,-11.4,72,33,10,30.01,29.90,11,4,11,0.05
2013-11-24,64.2,47.0,37.8,46.8,26.7,-12.3,76,39,10,30.10,30.00,10,4,10,0.00
2013-11-25,70.0,47.3,32.5,45.1,32.3,-15.9,74,38,10,30.17,30.08,10,3,10,0.00
2013-11-26,65.3,49.2,34.7,50.2,29.8,-5.6,86,49,15,30.04,30.02,14,4,14,0.01
2013-11-27,63.7,50.7,39.0,43.9,35.1,18.0,73,56,38,29.86,29.84,17,6,18,2.88
2013-11-28,61.2,48.2,32.9,43.0,33.8,17.4,76,58,40,29.97,29.85,13,4,13,0.00
2013-11-29,58.1,48.1,38.1,42.3,35.8,26.1,71,63,49,30.10,29.96,11,4,14,0.00
2013-11-30,66.7,49.2,34.7,45.0,33.3,20.3,75,56,31,30.12,30.03,12,5,12,0.00
2013-12-1,68.2,48.4,32.5,38.5,30.3,20.8,73,53,25,30.11,30.10,11,5,11,0.00
2013-12-2,73.8,51.2,33.3,38.8,28.1,21.7,72,45,17,30.10,29.78,22,7,22,0.06
2013-12-3,66.9,54.5,41.0,44.8,37.4,26.8,71,53,35,29.78,29.56,40,24,40,0.00
2013-12-4,53.6,40.1,29.3,27.3,18.0,10.9,64,43,19,29.69,29.65,37,9,39,0.00
2013-12-5,55.4,36.0,24.4,20.8,14.6,9.7,65,44,18,29.95,29.89,18,5,18,0.00
2013-12-6,51.1,35.1,20.3,30.9,15.0,4.8,61,45,25,29.95,29.88,29,9,29,0.00
2013-12-7,50.0,38.2,29.1,36.3,24.1,12.6,71,57,42,29.93,29.81,62,22,65,1.68
2013-12-8,49.5,33.5,21.4,23.4,15.4,10.8,72,49,25,30.10,29.92,26,5,27,0.00
2013-12-9,46.2,31.2,17.8,12.9,1.3,-9.4,71,34,10,30.29,30.25,24,8,24,0.00
2013-12-10,52.2,31.2,15.1,9.7,1.9,-7.8,49,31,11,0.00,40.00,10,4,10,0.00
2013-12-11,56.7,34.5,18.3,15.8,7.5,0.9,57,36,13,0.00,40.00,8,4,10,0.00
2013-12-12,61.5,39.3,23.2,21.2,12.0,6.8,56,36,15,0.00,40.00,8,4,10,0.38
2013-12-13,72.7,46.5,27.5,19.8,13.4,9.5,51,29,11,0.00,40.00,12,5,13,0.00
2013-12-14,62.2,43.8,25.3,25.3,16.4,10.6,58,36,18,30.29,30.17,20,6,20,0.00
2013-12-15,67.6,44.0,25.7,23.7,17.5,13.3,62,38,14,30.27,30.16,12,4,12,0.00
2013-12-16,71.8,47.3,32.5,27.3,20.2,15.4,56,36,16,30.17,30.10,9,3,9,0.00
2013-12-17,73.4,49.1,31.8,27.3,22.4,16.9,62,38,16,30.02,29.98,9,3,9,0.00
2013-12-18,66.2,52.4,42.1,43.3,29.4,-99.9,70,43,23,29.99,29.64,33,5,33,0.00
2013-12-19,55.2,44.4,32.0,45.1,31.4,-10.5,72,64,15,29.65,29.57,32,-90,35,0.00
2013-12-20,60.3,43.5,32.5,38.5,26.9,18.0,74,54,25,0.00,40.00,18,6,18,0.00
2013-12-21,74.1,49.5,33.3,36.7,28.8,-99.9,69,48,24,29.88,29.85,18,3,18,0.00
2013-12-22,63.3,49.9,35.1,36.7,27.4,-99.9,71,44,28,30.16,30.11,10,-4,10,0.00
2013-12-23,68.7,45.5,28.6,34.3,26.5,19.6,70,50,27,0.00,40.00,15,4,15,0.00
2013-12-24,71.4,46.7,27.7,34.9,27.0,18.9,74,49,24,29.91,29.91,17,4,17,0.00
2013-12-25,66.6,45.1,28.9,31.6,22.2,12.7,70,44,20,30.17,30.14,16,5,16,0.00
2013-12-26,66.9,42.7,24.3,23.0,11.9,3.2,57,32,11,30.15,30.14,11,4,11,0.00
2013-12-27,72.1,44.8,25.3,18.5,9.4,2.5,41,25,10,30.15,29.99,9,3,9,0.00
2013-12-28,79.0,49.6,31.5,78.3,20.7,1.6,46,23,10,29.99,29.99,20,5,21,0.00
2013-12-29,64.4,44.5,29.7,14.7,7.2,2.3,39,23,10,0.00,40.00,19,6,19,0.00
2013-12-30,69.6,41.2,24.1,69.6,7.4,0.5,39,24,10,0.00,40.00,9,4,9,0.00
2013-12-31,69.4,43.9,26.8,14.2,7.0,1.4,39,24,10,30.20,30.20,11,4,97,0.71
2014-1-1,69.6,45.7,26.1,18.3,10.2,2.7,40,25,11,30.08,30.05,11,4,11,0.00
2014-1-2,68.4,46.3,29.3,25.5,18.0,10.8,49,34,18,30.13,30.07,9,4,9,0.00